Skip Page Navigation
NASA JPL Caltech
NASA Logo - Jet Propulsion Laboratory + View the NASA Portal
+ Center for Near-Earth Object Studies
JPL Home Earth Solar System Stars & Galaxies Technology
JPL Solar System Dynamics
BODIES ORBITS EPHEMERIDES TOOLS PHYSICAL DATA DISCOVERY FAQ SITE MAP
JPL Small-Body Database Browser
Search: [ help ]  
(2014 UY191)
Classification: Outer Main-belt Asteroid          SPK-ID: 3695637
Ephemeris | Orbit Diagram | Orbital Elements | Mission Design | Physical Parameters ]

[ show orbit diagram ]
Orbital Elements at Epoch 2456961.5 (2014-Oct-31.0) TDB
Reference: JPL 3 (heliocentric ecliptic J2000)
 Element Value Uncertainty (1-sigma)   Units 
e .334687261894266 0.39497  
a 3.512729743278326 0.31661 au
q 2.337063843725955 1.4147 au
i 54.80689848239082 21.285 deg
node 73.67209729514383 7.321 deg
peri 261.8140216927098 46.41 deg
M 41.62579017098847 8.9812 deg
tp 2456683.448319751557
(2014-Jan-25.94831975)
50.101 TDB
period 2404.725639519614
6.58
325.11
0.8901
d
yr
n .1497052279410621 0.02024 deg/d
Q 4.688395642830697 0.42257 au
  Orbit Determination Parameters
   # obs. used (total)      8  
   data-arc span      2 days  
   first obs. used      2014-10-30  
   last obs. used      2014-11-01  
   planetary ephem.      DE431  
   SB-pert. ephem.      SB431-N16  
   condition code      9  
   norm. resid. RMS      .70574  
   source      ORB  
   producer      Otto Matic  
   solution date      2017-Apr-07 05:20:43  

Additional Information
 Earth MOID = 1.70649 au 
 Jupiter MOID = 1.71879 au 
 T_jup = 2.374 
[ show covariance matrix ]

Ephemeris | Orbit Diagram | Orbital Elements | Mission Design | Physical Parameters ]

Physical Parameter Table
Parameter Symbol Value Units Sigma Reference Notes
absolute magnitude H 16.473   .18573 3 autocmod 2.6i
Ephemeris | Orbit Diagram | Orbital Elements | Mission Design | Physical Parameters ]
ABOUT SSD CREDITS/AWARDS PRIVACY/COPYRIGHT GLOSSARY LINKS
FirstGov 2020-Aug-11 20:29 UT
(server date/time)  
NASA Home Page
Site Manager:   Ryan S. Park
Webmaster  Alan B. Chamberlin